EW9174 Weather Reports


Display with metric or nautical units.
time (UTC)temp
F
wind
direction
speed
MPH
gust
MPH
rain 1hr
in
rain 24hr
in
rain mn
in
humidity
%
barometer
mb
20260510201512 70 108 0.0 4.0 0.00 0.01 0.01 44 1016.3
20260510200010 70 123 0.0 2.0 0.00 0.01 0.01 48 1016.3
20260510194506 69 92 0.0 3.0 0.00 0.01 0.01 51 1016.3
20260510193004 67 125 0.0 3.0 0.00 0.01 0.01 50 1016.4
20260510191504 67 118 0.0 2.0 0.00 0.01 0.01 53 1016.5
20260510190104 66 119 0.0 2.0 0.00 0.01 0.01 57 1016.6
20260510184600 65 123 0.0 3.0 0.00 0.01 0.01 56 1016.7
20260510183057 66 136 0.0 2.0 0.00 0.01 0.01 57 1016.7
20260510181606 66 138 0.0 1.0 0.00 0.01 0.01 59 1016.9
20260510180056 64 130 0.0 2.0 0.00 0.01 0.01 64 1017.1
20260510174547 63 130 0.0 2.0 0.00 0.01 0.01 64 1017.1
20260510173045 61 132 0.0 2.0 0.00 0.01 0.01 66 1017.3
20260510171548 60 77 0.0 2.0 0.00 0.01 0.01 69 1017.3
20260510170049 60 76 0.0 2.0 0.00 0.01 0.01 69 1017.2
20260510164536 59 76 0.0 2.0 0.00 0.01 0.01 70 1017.2
20260510163031 59 36 0.0 1.0 0.00 0.01 0.01 71 1017.2
20260510161527 57 36 0.0 2.0 0.00 0.01 0.01 78 1017.1
20260510160024 56 35 0.0 0.0 0.00 0.01 0.01 79 1017.2
20260510154623 55 35 0.0 1.0 0.00 0.01 0.01 82 1017.3
20260510153034 54 35 0.0 1.0 0.00 0.01 0.01 83 1017.2
20260510151528 54 35 0.0 1.0 0.00 0.01 0.01 84 1017.1
20260510150019 53 35 0.0 0.0 0.00 0.01 0.01 84 1017.2
20260510144518 53 35 0.0 0.0 0.00 0.01 0.01 84 1017.2
20260510143021 53 35 0.0 0.0 0.00 0.01 0.01 84 1017.1
20260510141516 53 35 0.0 0.0 0.00 0.01 0.01 86 1017.0
20260510140016 52 35 0.0 0.0 0.00 0.01 0.01 88 1016.8
20260510134513 51 35 0.0 0.0 0.00 0.01 0.01 89 1016.7
20260510133011 51 35 0.0 0.0 0.00 0.01 0.01 89 1016.5
20260510131511 51 36 0.0 2.0 0.00 0.01 0.01 89 1016.3
20260510130025 51 59 0.0 0.0 0.00 0.01 0.01 90 1016.2
20260510124507 50 59 0.0 0.0 0.00 0.01 0.01 90 1016.2
20260510123007 50 59 0.0 0.0 0.00 0.01 0.01 90 1016.1
20260510121506 50 59 0.0 0.0 0.00 0.01 0.01 89 1015.9
20260510120023 50 59 0.0 0.0 0.00 0.01 0.01 90 1015.8
20260510114512 50 59 0.0 0.0 0.00 0.01 0.01 90 1015.7
20260510113003 50 59 0.0 0.0 0.00 0.01 0.01 90 1015.6
20260510111503 50 59 0.0 1.0 0.00 0.01 0.01 90 1015.7
20260510110005 50 59 0.0 0.0 0.01 0.01 0.01 89 1015.7
20260510104501 50 59 0.0 1.0 0.01 0.01 0.01 89 1015.8
20260510103100 50 59 0.0 2.0 0.01 0.01 0.01 89 1016.0
20260510101558 50 59 0.0 2.0 0.01 0.01 0.01 89 1015.9
20260510094555 51 59 0.0 3.0 0.00 0.00 0.00 87 1015.8
20260510093102 51 57 0.0 3.0 0.00 0.00 0.00 87 1015.7
20260510091552 51 51 1.0 4.0 0.00 0.00 0.00 86 1015.6
20260510090051 52 51 0.0 4.0 0.00 0.00 0.00 85 1015.6
20260510084549 52 57 0.0 3.0 0.00 0.00 0.00 83 1015.6
20260510083058 52 57 0.0 3.0 0.00 0.00 0.00 83 1015.2
20260510081545 52 54 0.0 3.0 0.00 0.00 0.00 83 1014.9
20260510080049 52 55 0.0 3.0 0.00 0.00 0.00 83 1014.7
20260510074543 52 66 0.0 4.0 0.00 0.00 0.00 82 1014.9
20260510073040 52 64 0.0 4.0 0.00 0.00 0.00 81 1014.9
20260510071540 53 66 0.0 4.0 0.00 0.00 0.00 78 1015.0
20260510070036 54 100 0.0 3.0 0.00 0.00 0.00 76 1014.5
20260510064535 55 53 0.0 6.0 0.00 0.00 0.00 72 1014.7
20260510063028 55 75 2.0 8.0 0.00 0.00 0.00 68 1014.4
20260510061525 55 19 3.0 8.0 0.00 0.00 0.00 66 1014.1
20260510060026 55 57 1.0 8.0 0.00 0.00 0.00 66 1013.9
20260510054520 55 38 1.0 10.0 0.00 0.00 0.00 64 1012.9
20260510053022 56 59 3.0 14.0 0.00 0.00 0.00 62 1011.8
20260510051515 57 68 2.0 14.0 0.00 0.00 0.00 60 1011.6
20260510050016 58 73 4.0 12.0 0.00 0.00 0.00 58 1011.3
20260510044516 58 55 5.0 16.0 0.00 0.00 0.00 56 1011.0
20260510043008 59 115 3.0 19.0 0.00 0.00 0.00 55 1010.3
20260510041512 60 67 3.0 15.0 0.00 0.00 0.00 51 1009.8
20260510040004 63 70 3.0 16.0 0.00 0.00 0.00 47 1009.2
20260510034600 64 56 3.0 12.0 0.00 0.00 0.00 43 1008.3
20260510033126 65 75 0.0 2.0 0.00 0.00 0.00 40 1006.6
20260510031556 65 77 0.0 1.0 0.00 0.00 0.00 39 1006.3
20260510030056 66 77 0.0 0.0 0.00 0.00 0.00 38 1005.9
20260510024604 67 77 0.0 1.0 0.00 0.00 0.00 36 1005.4
20260510023055 68 76 0.0 1.0 0.00 0.00 0.00 34 1004.9
20260510021555 69 76 0.0 1.0 0.00 0.00 0.00 34 1004.7
20260510020057 70 76 0.0 1.0 0.00 0.00 0.00 32 1004.3
20260510014554 71 76 0.0 1.0 0.00 0.00 0.00 30 1003.8
20260510013053 72 76 0.0 2.0 0.00 0.00 0.00 26 1003.9
20260510011553 72 56 1.0 7.0 0.00 0.00 0.00 26 1004.8
20260510010053 72 47 0.0 5.0 0.00 0.00 0.00 31 1004.9
20260510004552 72 63 0.0 2.0 0.00 0.00 0.00 30 1004.7
20260510003102 72 55 1.0 5.0 0.00 0.00 0.00 30 1004.1
20260510001550 74 74 1.0 4.0 0.00 0.00 0.00 28 1004.0
20260510000053 76 59 0.0 2.0 0.00 0.00 0.00 21 1003.8
20260509234551 76 35 1.0 6.0 0.00 0.00 0.00 20 1002.9
20260509233048 75 5 3.0 9.0 0.00 0.00 0.00 20 1003.0
20260509231553 76 80 3.0 14.0 0.00 0.00 0.00 20 1002.3
20260509230052 76 65 0.0 3.0 0.00 0.00 0.00 22 1002.2
20260509224556 76 80 0.0 3.0 0.00 0.00 0.00 21 1002.2
20260509223051 78 118 0.0 4.0 0.00 0.00 0.00 21 1002.0
20260509221546 79 86 1.0 3.0 0.00 0.00 0.00 19 1001.3
20260509220046 79 75 1.0 3.0 0.00 0.00 0.00 19 1001.4
20260509214545 81 51 0.0 4.0 0.00 0.00 0.00 16 1001.3
20260509213043 83 66 0.0 2.0 0.00 0.00 0.00 17 1001.4
20260509211541 86 65 0.0 2.0 0.00 0.00 0.00 18 1001.7
20260509210046 87 62 2.0 5.0 0.00 0.00 0.00 16 1002.0
20260509204536 87 274 1.0 6.0 0.00 0.00 0.00 15 1002.1
20260509203036 85 324 0.0 7.0 0.00 0.00 0.00 15 1002.4